TimePST,TemperatureF,Dew PointF,Humidity,Sea Level PressureIn,VisibilityMPH,Wind Direction,Wind SpeedMPH,Gust SpeedMPH,PrecipitationIn,Events,Conditions,WindDirDegrees,DateUTC
12:12 AM,28.4,26.6,93,29.77,4.0,Calm,Calm,-,0.00,Snow,Light Snow,0,2012-11-10 08:12:00
12:24 AM,28.4,26.6,93,29.77,2.0,Calm,Calm,-,0.00,Snow,Light Snow,0,2012-11-10 08:24:00
12:34 AM,28.4,26.6,93,29.77,1.5,Calm,Calm,-,0.01,Snow,Light Snow,0,2012-11-10 08:34:00
12:56 AM,28.0,26.1,92,29.84,1.2,Calm,Calm,-,0.02,Snow,Light Snow,0,2012-11-10 08:56:00
1:06 AM,28.4,26.6,93,29.78,2.0,Calm,Calm,-,0.00,Snow,Light Snow,0,2012-11-10 09:06:00
1:12 AM,28.4,26.6,93,29.78,2.5,Calm,Calm,-,0.00,Snow,Light Snow,0,2012-11-10 09:12:00
1:28 AM,28.4,26.6,93,29.78,2.5,Variable,3.5,-,0.00,Snow,Light Snow,0,2012-11-10 09:28:00
1:44 AM,28.4,26.6,93,29.79,5.0,Calm,Calm,-,0.01,Snow,Light Snow,0,2012-11-10 09:44:00
1:58 AM,28.4,24.8,86,29.79,6.0,Calm,Calm,-,0.00,Snow,Light Snow,0,2012-11-10 09:58:00
2:10 AM,28.4,26.6,93,29.79,4.0,Variable,3.5,-,0.00,Snow,Light Snow,0,2012-11-10 10:10:00
2:22 AM,28.4,26.6,93,29.79,6.0,Calm,Calm,-,0.00,Snow,Light Snow,0,2012-11-10 10:22:00
2:56 AM,27.0,25.0,92,29.88,10.0,Calm,Calm,-,0.00,,Overcast,0,2012-11-10 10:56:00
3:03 AM,26.6,24.8,93,29.80,10.0,Calm,Calm,-,N/A,,Overcast,0,2012-11-10 11:03:00
3:13 AM,26.6,24.8,93,29.81,10.0,Calm,Calm,-,N/A,,Overcast,0,2012-11-10 11:13:00
3:29 AM,26.6,24.8,93,29.81,10.0,Calm,Calm,-,N/A,,Overcast,0,2012-11-10 11:29:00
3:56 AM,27.0,25.0,92,29.90,10.0,Calm,Calm,-,N/A,,Overcast,0,2012-11-10 11:56:00
4:02 AM,26.6,24.8,93,29.82,10.0,Calm,Calm,-,N/A,,Overcast,0,2012-11-10 12:02:00
4:18 AM,26.6,24.8,93,29.82,2.5,Calm,Calm,-,0.00,Snow,Light Snow,0,2012-11-10 12:18:00
4:26 AM,26.6,24.8,93,29.82,1.2,Calm,Calm,-,0.00,Snow,Light Snow,0,2012-11-10 12:26:00
4:34 AM,26.6,24.8,93,29.82,3.0,Calm,Calm,-,0.01,Snow,Light Snow,0,2012-11-10 12:34:00
4:56 AM,27.0,25.0,92,29.91,3.0,North,3.5,-,0.01,Snow,Light Snow,10,2012-11-10 12:56:00
5:36 AM,26.6,24.8,93,29.83,3.0,Calm,Calm,-,0.00,Snow,Light Snow,0,2012-11-10 13:36:00
5:49 AM,26.6,24.8,93,29.83,1.8,Calm,Calm,-,0.01,Snow,Light Snow,0,2012-11-10 13:49:00
5:56 AM,27.0,25.0,92,29.91,0.5,Variable,3.5,-,0.02,Fog-Snow,Snow,0,2012-11-10 13:56:00
6:18 AM,26.6,24.8,93,29.84,2.0,Calm,Calm,-,0.01,Snow,Light Snow,0,2012-11-10 14:18:00
6:26 AM,26.6,24.8,93,29.84,9.0,Calm,Calm,-,0.01,,Overcast,0,2012-11-10 14:26:00
6:56 AM,25.0,23.0,92,29.95,10.0,Calm,Calm,-,0.01,,Mostly Cloudy,0,2012-11-10 14:56:00
7:08 AM,24.8,21.2,86,29.87,10.0,Calm,Calm,-,N/A,,Partly Cloudy,0,2012-11-10 15:08:00
7:56 AM,24.1,21.9,91,29.97,10.0,Calm,Calm,-,N/A,,Scattered Clouds,0,2012-11-10 15:56:00
8:56 AM,28.0,23.0,81,29.98,10.0,Calm,Calm,-,N/A,,Partly Cloudy,0,2012-11-10 16:56:00
9:21 AM,28.4,23.0,80,29.91,10.0,Calm,Calm,-,N/A,,Mostly Cloudy,0,2012-11-10 17:21:00
9:56 AM,28.0,23.0,81,30.00,10.0,Variable,3.5,-,N/A,,Overcast,0,2012-11-10 17:56:00
10:06 AM,28.4,23.0,80,29.92,10.0,Calm,Calm,-,N/A,,Overcast,0,2012-11-10 18:06:00
10:41 AM,28.4,21.2,74,29.92,10.0,Calm,Calm,-,N/A,,Overcast,0,2012-11-10 18:41:00
10:56 AM,28.9,21.9,75,30.01,10.0,Calm,Calm,-,N/A,,Mostly Cloudy,0,2012-11-10 18:56:00
11:12 AM,28.4,24.8,86,29.93,10.0,West,3.5,-,N/A,,Mostly Cloudy,270,2012-11-10 19:12:00
11:25 AM,28.4,24.8,86,29.93,10.0,Calm,Calm,-,N/A,,Mostly Cloudy,0,2012-11-10 19:25:00
11:56 AM,28.9,24.1,82,30.01,3.0,Variable,3.5,-,0.00,Snow,Light Snow,0,2012-11-10 19:56:00
12:56 PM,30.0,24.1,79,30.03,10.0,West,4.6,-,0.00,,Mostly Cloudy,280,2012-11-10 20:56:00
1:25 PM,28.4,24.8,86,29.95,4.0,Variable,3.5,-,0.00,Snow,Light Snow,0,2012-11-10 21:25:00
1:35 PM,28.4,23.0,80,29.96,2.0,WNW,4.6,-,0.00,Snow,Light Snow,300,2012-11-10 21:35:00
1:48 PM,28.4,24.8,86,29.96,4.0,Calm,Calm,-,0.00,Snow,Light Snow,0,2012-11-10 21:48:00
1:56 PM,28.0,24.1,85,30.05,5.0,Calm,Calm,-,0.00,Snow,Light Snow,0,2012-11-10 21:56:00
2:23 PM,28.4,24.8,86,29.97,9.0,Calm,Calm,-,0.00,,Overcast,0,2012-11-10 22:23:00
2:56 PM,28.0,24.1,85,30.06,2.5,Calm,Calm,-,0.00,Snow,Light Snow,0,2012-11-10 22:56:00
3:04 PM,26.6,24.8,93,29.98,1.0,Calm,Calm,-,0.01,Snow,Light Snow,0,2012-11-10 23:04:00
3:26 PM,26.6,24.8,93,29.99,0.8,Calm,Calm,-,0.02,Snow,Light Snow,0,2012-11-10 23:26:00
3:40 PM,26.6,24.8,93,30.00,0.2,Calm,Calm,-,0.02,Fog-Snow,Snow,0,2012-11-10 23:40:00
3:56 PM,26.1,24.1,92,30.09,0.2,Calm,Calm,-,0.04,Fog-Snow,Heavy Snow,0,2012-11-10 23:56:00
4:12 PM,26.6,24.8,93,30.00,0.5,Calm,Calm,-,0.01,Fog-Snow,Snow,0,2012-11-11 00:12:00
4:20 PM,26.6,24.8,93,30.00,0.2,Calm,Calm,-,0.01,Fog-Snow,Snow,0,2012-11-11 00:20:00
4:25 PM,26.6,24.8,93,30.00,0.5,Calm,Calm,-,0.02,Fog-Snow,Snow,0,2012-11-11 00:25:00
4:40 PM,26.6,23.0,86,30.01,1.5,Calm,Calm,-,0.02,Snow,Light Snow,0,2012-11-11 00:40:00
4:46 PM,26.6,24.8,93,30.01,3.0,Calm,Calm,-,0.02,Snow,Light Snow,0,2012-11-11 00:46:00
4:56 PM,26.1,24.1,92,30.11,2.5,Calm,Calm,-,0.02,Snow,Light Snow,0,2012-11-11 00:56:00
5:03 PM,26.6,24.8,93,30.02,2.0,Calm,Calm,-,0.00,Snow,Light Snow,0,2012-11-11 01:03:00
5:18 PM,26.6,24.8,93,30.03,4.0,Calm,Calm,-,0.00,Snow,Light Snow,0,2012-11-11 01:18:00
5:25 PM,26.6,23.0,86,30.03,7.0,Calm,Calm,-,0.00,Snow,Light Snow,0,2012-11-11 01:25:00
5:56 PM,25.0,23.0,92,30.13,8.0,Calm,Calm,-,0.00,,Overcast,0,2012-11-11 01:56:00
6:56 PM,25.0,23.0,92,30.14,10.0,Calm,Calm,-,N/A,,Overcast,0,2012-11-11 02:56:00
7:26 PM,24.8,23.0,93,30.05,10.0,Calm,Calm,-,N/A,,Overcast,0,2012-11-11 03:26:00
7:56 PM,25.0,23.0,92,30.16,10.0,Calm,Calm,-,N/A,,Mostly Cloudy,0,2012-11-11 03:56:00
8:05 PM,24.8,21.2,86,30.05,9.0,Calm,Calm,-,N/A,,Mostly Cloudy,0,2012-11-11 04:05:00
8:17 PM,24.8,21.2,86,30.06,10.0,Calm,Calm,-,N/A,,Mostly Cloudy,0,2012-11-11 04:17:00
8:29 PM,24.8,21.2,86,30.06,10.0,Calm,Calm,-,N/A,,Mostly Cloudy,0,2012-11-11 04:29:00
8:38 PM,24.8,21.2,86,30.06,10.0,Calm,Calm,-,N/A,,Overcast,0,2012-11-11 04:38:00
8:56 PM,25.0,23.0,92,30.16,10.0,Calm,Calm,-,N/A,,Overcast,0,2012-11-11 04:56:00
9:10 PM,24.8,23.0,93,30.07,10.0,Calm,Calm,-,N/A,,Overcast,0,2012-11-11 05:10:00
9:49 PM,24.8,23.0,93,30.08,10.0,Calm,Calm,-,N/A,,Overcast,0,2012-11-11 05:49:00
9:56 PM,25.0,23.0,92,30.17,10.0,Calm,Calm,-,N/A,,Overcast,0,2012-11-11 05:56:00
10:14 PM,24.8,23.0,93,30.08,10.0,Calm,Calm,-,N/A,,Overcast,0,2012-11-11 06:14:00
10:56 PM,24.1,21.9,91,30.19,9.0,Calm,Calm,-,N/A,,Overcast,0,2012-11-11 06:56:00
11:47 PM,23.0,21.2,93,30.10,10.0,Calm,Calm,-,N/A,,Overcast,0,2012-11-11 07:47:00
11:56 PM,23.0,21.0,92,30.20,10.0,Calm,Calm,-,N/A,,Overcast,0,2012-11-11 07:56:00